Flag for Canada Weather past 2 weeks in Moose Jaw, Saskatchewan, Canada

Now
39 °F

Partly sunny.


Feels Like: 29 °F
Forecast: 39 / 61 °F
Wind: 20 mph from Southeast

Location: Regina Weather Station

Current Time: May 30, 2015 at 7:42:38 AM

Latest Report: May 30, 2015 at 7:00 AM


Visibility: 15 mi

Pressure: 30.40 "Hg

Humidity: 70%

Dew point: 30 °F

Location of Moose JawLocation

Historic Weather in Moose Jaw — Graph

°F

Moose Jaw temperature yesterday

Maximum temperature yesterday: 55 °F (at 3:00 PM)
Minimum temperature yesterday: 41 °F (at 12:00 AM)
Average temperature yesterday: 47 °F

Past Weeks' High & Low Weather Summary

 TemperatureHumidityPressure
High82 °F (May 26, 2:00 PM)93% (May 15, 6:00 AM)30.56 "Hg (May 15, 6:00 AM)
Low25 °F (May 18, 2:00 AM)15% (May 21, 2:00 PM)29.82 "Hg (May 25, 8:00 PM)
Average57 °F47%30.13 "Hg
* Reported May 15 6:00 AM — May 30 6:00 AM, Moose Jaw, Weather by CustomWeather, © 2015

Note: Actual official high and low records may vary slightly from our data, if they occured in-between our weather recording intervals... More about our weather records

Advertising

Moose Jaw weather history for previous 24 hours

 ConditionsComfort  
Time TempWeatherWind HumidityBarometerVisibility
6:00 AM
Sat, May 30
37 °FPartly sunny.20 mph75%30.40 "Hg15 mi
5:00 AM37 °FPartly sunny.16 mph75%30.40 "Hg15 mi
4:00 AM37 °FPassing clouds.16 mph75%30.39 "Hg15 mi
3:00 AM39 °FPassing clouds.14 mph65%30.39 "Hg15 mi
2:00 AM39 °FPassing clouds.12 mph61%30.39 "Hg15 mi
1:00 AM41 °FPassing clouds.9 mph49%30.39 "Hg15 mi
12:00 AM43 °FPassing clouds.13 mph46%30.39 "Hg15 mi
11:00 PM
Fri, May 29
43 °FPassing clouds.8 mph49%30.40 "Hg15 mi
10:00 PM45 °FPassing clouds.12 mph46%30.40 "Hg15 mi
9:00 PM46 °FPassing clouds.9 mph43%30.39 "Hg15 mi
8:00 PM50 °FOvercast.12 mph37%30.38 "Hg15 mi
7:00 PM54 °FPartly sunny.9 mph35%30.37 "Hg15 mi
6:00 PM54 °FPartly sunny.12 mph35%30.37 "Hg15 mi
5:00 PM55 °FPassing clouds.9 mph33%30.36 "Hg15 mi
4:00 PM55 °FPassing clouds.7 mph28%30.37 "Hg15 mi
3:00 PM55 °FPassing clouds.8 mph28%30.38 "Hg15 mi
2:00 PM54 °FPassing clouds.9 mph28%30.39 "Hg15 mi
1:00 PM52 °FPassing clouds.9 mph32%30.41 "Hg15 mi
12:00 PM50 °FPassing clouds.10 mph40%30.42 "Hg15 mi
11:00 AM48 °FPassing clouds.13 mph46%30.42 "Hg15 mi
10:00 AM46 °FPassing clouds.9 mph46%30.43 "Hg15 mi
9:00 AM45 °FScattered clouds.12 mph53%30.42 "Hg15 mi
8:00 AM43 °FPartly sunny.13 mph57%30.40 "Hg15 mi
7:00 AM41 °FPartly sunny.12 mph61%30.39 "Hg15 mi
Weather by CustomWeather, © 2015

See weather overviewHow to use our weather pages